Regional Weather Roundup
Issued by NWS

Home | Current Version | Previous Version | Text Only | Print | Product List | Glossary Off
Versions: 1 2 3 4 5 6 7 8 9 10 11 12 13 14 15 16 17 18 19 20 21 22 23 24 25 26 27 28 29 30 31 32 33 34 35 36 37 38 39 40 41 42 43 44 45

000
ASUS45 KPSR 221210
RWRAZ

ARIZONA HOURLY REGIONAL WEATHER ROUNDUP
NATIONAL WEATHER SERVICE PHOENIX AZ
500 AM MST MON MAY 22 2017

NOTE: FAIR INDICATES FEW OR NO CLOUDS BELOW 12,000 FEET WITH NO
SIGNIFICANT WEATHER AND/OR OBSTRUCTIONS TO VISIBILITY.

AZZ001>003-036-221300-
NORTHWEST ARIZONA

CITY           SKY/WX    TMP DP  RH WIND       PRES   REMARKS
BULLHEAD CITY  CLEAR     82  36  18 N21       29.84S
KINGMAN        CLEAR     61  27  27 MISG      30.03S
6HR MIN TEMP:  59; 6HR MAX TEMP:  70;

$$

AZZ004>008-015-016-018-221300-
NORTH CENTRAL ARIZONA

CITY           SKY/WX    TMP DP  RH WIND       PRES   REMARKS
GRAND CANYON   CLEAR     35  30  82 CALM      30.25R
6HR MIN TEMP:  33; 6HR MAX TEMP:  46;

WILLIAMS       CLEAR     41  30  65 S9        30.23S
PRESCOTT       CLEAR     48  30  49 S6        30.13S
6HR MIN TEMP:  48; 6HR MAX TEMP:  65;

FLAGSTAFF      CLEAR     35  27  72 CALM      30.25R
6HR MIN TEMP:  35; 6HR MAX TEMP:  49;

PAYSON         CLEAR     63  28  27 N7        30.15S
PAGE           CLEAR     56  41  57 CALM      30.16R
6HR MIN TEMP:  56; 6HR MAX TEMP:  68;

$$

AZZ009>014-017-221300-
NORTHEAST ARIZONA

CITY           SKY/WX    TMP DP  RH WIND       PRES   REMARKS
WINSLOW        CLEAR     45  30  55 SW7       30.16S
6HR MIN TEMP:  45; 6HR MAX TEMP:  58;

SAINT JOHNS    PTCLDY    46  24  42 CALM      30.16R
6HR MIN TEMP:  43; 6HR MAX TEMP:  57;

WINDOW ROCK    CLEAR     36  27  69 CALM      30.23R
6HR MIN TEMP:  36; 6HR MAX TEMP:  55;

SHOW LOW       CLEAR     39  19  45 CALM      30.22S
$$

AZZ540-542>544-546-548-221300-
GREATER PHOENIX AREA

CITY           SKY/WX    TMP DP  RH WIND       PRES   REMARKS
PHOENIX        PTCLDY    74  32  21 SE6       29.84R
6HR MIN TEMP:  73; 6HR MAX TEMP:  91;

BUCKEYE        CLEAR     66  27  22 E5        29.84S
LUKE AFB       CLEAR     68  35  29 CALM      29.83S
6HR MIN TEMP:  68; 6HR MAX TEMP:  81;

DEER VALLEY    CLEAR     71  27  19 CALM      29.85S
6HR MIN TEMP:  71; 6HR MAX TEMP:  76;

SCOTTSDALE     CLEAR     71  38  29 CALM      29.87R
6HR MIN TEMP:  71; 6HR MAX TEMP:  83;

MESA-GATEWAY   CLEAR    N/A N/A N/A E7        29.87R
$$

AZZ539-553-221300-
SOUTHWEST MARICOPA COUNTY AND PINAL COUNTY

CITY           SKY/WX    TMP DP  RH WIND       PRES   REMARKS
CASA GRANDE    CLEAR     65  24  21 CALM      29.87S
6HR MIN TEMP:  65; 6HR MAX TEMP:  79;

GILA BEND      FAIR      71  21  15 E6        29.82S
6HR MIN TEMP:  69; 6HR MAX TEMP:  85; 6HR PCP: TRACE;

$$

AZZ503-504-507>509-221300-
SOUTHEAST ARIZONA

CITY           SKY/WX    TMP DP  RH WIND       PRES   REMARKS
TUCSON         CLEAR     65  26  23 S8        29.96F
6HR MIN TEMP:  65; 6HR MAX TEMP:  79;

DAVIS-MONTHAN  CLEAR     62  21  20 SE9       29.95S
6HR MIN TEMP:  61; 6HR MAX TEMP:  78;

NOGALES        CLEAR     56  27  32 E5        30.03S
6HR MIN TEMP:  55; 6HR MAX TEMP:  67;

SIERRA VISTA   CLEAR     65  19  17 W9        30.08S
6HR MIN TEMP:  65; 6HR MAX TEMP:  71;

DOUGLAS        CLEAR     55  14  19 N12       30.03F
6HR MIN TEMP:  50; 6HR MAX TEMP:  64;

SAFFORD        CLEAR     57  14  18 CALM      29.96S
6HR MIN TEMP:  57; 6HR MAX TEMP:  75;

$$

AZZ532-221300-
SOUTHWEST ARIZONA

CITY           SKY/WX    TMP DP  RH WIND       PRES   REMARKS
YUMA           CLEAR     74  38  27 SE3       29.79S
6HR MIN TEMP:  72; 6HR MAX TEMP:  82;

$$

CAZ041-043-047-048-061-525>527-560>570-221300-
SOUTHERN CALIFORNIA

CITY           SKY/WX    TMP DP  RH WIND       PRES   REMARKS
DOWNTOWN L.A.  CLEAR     61  58  90 CALM      29.91F
6HR MIN TEMP:  61; 6HR MAX TEMP:  64;

L.A. AIRPORT     N/A     59  58  96 CALM      29.92S FOG
6HR MIN TEMP:  59; 6HR MAX TEMP:  62;

SAN DIEGO      CLOUDY    63  60  90 W7        29.93S
6HR MIN TEMP:  63; 6HR MAX TEMP:  65;

BURBANK        CLEAR     63  49  60 CALM      29.91F
6HR MIN TEMP:  63; 6HR MAX TEMP:  69;

ONTARIO        CLEAR     63  55  75 CALM      29.92S
6HR MIN TEMP:  62; 6HR MAX TEMP:  71;

RIVERSIDE      CLEAR     62  49  62 CALM      29.92S
6HR MIN TEMP:  62; 6HR MAX TEMP:  72;

PALM SPRINGS   CLEAR     76  45  33 CALM      29.83S
6HR MIN TEMP:  73; 6HR MAX TEMP:  91;

EL CENTRO NAS  CLEAR     71  33  24 NW5       29.80R
6HR MIN TEMP:  70; 6HR MAX TEMP:  84;

IMPERIAL       CLEAR     75  39  27 W6        29.77S
6HR MIN TEMP:  71; 6HR MAX TEMP:  82;

BLYTHE         CLEAR     73  34  23 NW7       29.80S
6HR MIN TEMP:  72; 6HR MAX TEMP:  90;

NEEDLES        CLEAR     76  24  14 SW7       29.86R
6HR MIN TEMP:  76; 6HR MAX TEMP:  90;

$$

NVZ020-UTZ003-221300-
SOUTHERN NEVADA-UTAH

CITY           SKY/WX    TMP DP  RH WIND       PRES   REMARKS
LAS VEGAS      PTCLDY    77  35  21 NE9       29.99R
6HR MIN TEMP:  77; 6HR MAX TEMP:  86;

SALT LAKE CITY PTCLDY    51  44  77 SE7       30.24R
6HR MIN TEMP:  50; 6HR MAX TEMP:  57;

$$

NMZ009-TXZ055-221300-
NEW MEXICO-WEST TEXAS

CITY           SKY/WX    TMP DP  RH WIND       PRES   REMARKS
ALBUQUERQUE    PTCLDY    58  22  24 N9        30.13R
6HR MIN TEMP:  57; 6HR MAX TEMP:  67;

EL PASO        CLEAR     65  49  56 NE3       30.02R
6HR MIN TEMP:  64; 6HR MAX TEMP:  74;

$$


........................KEY........................
SKY/WX - SKY CONDITION/WEATHER
TMP    - TEMPERATURE IN FAHRENHEIT
DP     - DEW POINT IN FAHRENHEIT
RH     - RELATIVE HUMIDITY IN PERCENT
WIND   - DIRECTION AND SPEED IN MILES PER HOUR (MPH)
VRB    - VARIABLE WIND DIRECTION
PRES   - MEAN SEA LEVEL PRESSURE IN INCHES OF MERCURY
         F - FALLING PRESSURE   R - RISING PRESSURE
         S - STEADY PRESSURE
VSB    - VISIBILITY IN MILES
HX     - HEAT INDEX IN FAHRENHEIT
WCI    - WIND CHILL INDEX IN FAHRENHEIT
TC     - TEMPERATURE IN CELSIUS WHICH IS ALSO KNOWN AS
         TEMPERATURE IN CENTIGRADE
AFB    - AIR FORCE BASE
         LUKE AFB IS LUKE AIR FORCE BASE
         DAVIS-MONTHAN IS DAVIS-MONTHAN AIR FORCE BASE
NAS    - NAVAL AIR STATION
         EL CENTRO NAS IS EL CENTRO NAVAL AIR STATION
N/A    - NOT AVAILABLE





USA.gov is the U.S. government's official web portal to all federal, state and local government web resources and services.